Lid_Strength_Index
3 6 5 6 10 9 11 10 9 9 7 7 7 6 6 6 7 8 1 0 0 -0 -1 -1 -1 -1 -1 -1 -1 -1 -1 -1 -1 -1 -1 -1 -1 -1 -1 -1 -1 -1 -1 -2 -2 -2 -2 -2 -2
6 5 6 8 10 11 11 10 9 8 6 7 7 6 6 7 4 4 3 0 -0 -0 -1 -1 -1 -1 -1 -1 -1 -1 -1 -1 -1 -1 -1 -1 -1 -1 -1 -1 -2 -2 -2 -2 -2 -2 -2 -2 -2
7 6 7 9 11 11 10 9 8 7 7 6 6 6 6 6 3 3 1 0 -0 -0 -1 -1 -1 -1 -1 -1 -1 -1 -1 -1 -1 -1 -1 -1 -1 -1 -1 -1 -2 -2 -2 -2 -2 -2 -2 -2 -2
6 6 8 10 12 11 9 8 9 7 7 5 6 7 6 5 4 1 0 -0 0 -0 -1 -1 -1 -1 -1 -1 -1 -1 -1 -1 -1 -1 -1 -1 -1 -1 -1 -2 -2 -2 -2 -2 -2 -2 -2 -2 -2
5 6 9 11 12 11 10 9 8 8 7 7 6 7 6 6 1 1 0 0 1 0 -1 -1 -1 -1 -1 -1 -1 -1 -1 -1 -1 -1 -1 -1 -1 -1 -1 -1 -2 -2 -2 -2 -2 -2 -2 -2 -2
7 7 11 12 12 11 9 8 8 7 7 7 7 7 6 4 2 1 0 0 -0 0 -1 -1 -1 -1 -1 -1 -1 -1 -1 -1 -1 -1 -1 -1 -1 -1 -1 -1 -2 -2 -2 -2 -2 -2 -2 -3 -3
7 7 10 11 11 10 9 7 8 7 7 7 6 8 6 4 1 1 0 0 -0 -0 -0 -1 -1 -1 -1 -1 -1 -1 -1 -1 -1 -1 -1 -1 -1 -1 -1 -1 -1 -2 -2 -2 -2 -2 -2 -2 -2
6 6 9 9 10 10 8 8 7 8 8 6 6 7 7 5 1 1 1 0 0 0 -0 -0 -1 -1 -1 -1 -1 -1 -1 -1 -1 -1 -1 -1 -1 -1 -1 -1 -1 -1 -1 -2 -2 -2 -2 -2 -2
6 9 10 9 9 8 7 9 7 7 7 7 7 6 5 3 1 2 2 1 1 1 0 -0 -0 -1 -1 -1 -1 -1 -1 -1 -1 -1 -1 -1 -1 -2 -2 -2 -1 -1 -1 -1 -2 -2 -2 -2 -2
7 9 9 7 6 7 7 8 8 8 8 8 7 6 5 2 2 3 3 3 2 2 1 0 -0 -0 -1 -1 -1 -1 -1 -1 -1 -1 -1 -1 -2 -2 -1 -2 -1 -1 -1 -1 -1 -2 -2 -1 -1
9 9 8 8 6 6 7 7 7 8 8 7 8 7 6 3 3 3 3 2 2 1 1 0 0 -1 -1 -0 -1 -1 -1 -1 -1 -1 -1 -2 -1 -1 -1 -1 -1 -2 -1 -1 -1 -1 -1 -1 -1
9 8 7 7 7 7 7 7 8 7 7 6 6 6 7 6 3 3 3 2 2 1 1 0 -0 -0 -0 -1 -0 -1 -0 -1 -1 -1 -1 -1 -1 -1 -1 -1 -1 -1 -1 -1 -1 -1 -1 -1 -1
9 8 8 7 7 7 7 8 8 8 6 5 6 6 6 6 4 2 2 2 1 2 1 1 -0 -0 -0 -0 -0 -0 -0 -0 -1 -1 -1 -1 -1 -0 -1 -1 -1 -1 -1 -1 -1 -1 -1 -1 -1
8 8 8 8 7 7 8 7 8 7 5 5 6 6 6 6 5 2 2 2 2 1 1 0 0 -0 -0 -0 -0 -0 -0 -1 -1 -1 -1 -0 -1 -1 -1 -0 -0 -1 -1 -1 -1 -1 -0 -0 -1
8 9 9 8 8 8 7 9 9 6 6 5 5 6 6 5 4 4 2 2 2 1 1 1 1 -0 0 -0 -0 -0 -0 -1 -0 -1 -1 -1 -1 -1 -1 -0 -0 -1 -1 -1 -1 -1 -1 -0 -0
9 10 11 9 9 8 8 11 7 6 7 6 6 6 6 5 3 3 2 1 1 1 1 1 0 0 0 0 -0 -0 -0 -0 -0 -0 -1 -1 -1 -1 -1 -0 -0 -1 -1 -1 -0 -0 0 0 0
10 12 11 10 8 9 9 11 8 6 7 7 6 6 5 6 5 3 2 1 1 1 1 1 0 1 0 -0 -0 -0 -0 -0 -0 -1 -1 -1 -1 -1 -1 -0 -0 -1 -1 -0 -0 -0 0 1 1
13 13 12 12 9 9 9 10 7 6 7 6 6 6 5 5 4 4 3 1 1 1 1 1 1 0 0 0 0 -0 0 -0 -0 -0 -0 -1 -0 -1 -0 -0 -0 -1 -0 -0 -0 0 -0 0 1
11 12 12 10 8 10 9 9 8 6 7 6 6 5 5 4 3 3 2 2 1 1 1 1 1 1 1 1 1 1 2 1 0 -0 -1 -1 -1 -1 -0 -0 -0 -0 0 0 0 0 1 1 0
11 11 11 9 8 10 9 9 8 7 7 6 6 5 4 4 3 2 2 1 1 1 1 1 1 1 1 1 1 1 1 1 0 -0 -0 -1 -1 -1 -0 -0 0 0 0 0 0 1 2 1 0
10 11 11 11 9 9 10 10 9 7 7 6 5 5 4 4 4 3 2 2 1 1 1 1 1 1 1 0 1 0 0 1 1 1 0 -0 -0 -1 -0 -0 -0 -0 -0 1 0 1 1 2 1
11 9 9 10 11 13 10 14 10 9 8 7 6 5 5 4 3 3 2 2 2 1 1 1 1 1 1 0 1 1 2 3 2 1 1 0 -0 -0 -0 -1 -0 -0 0 0 0 0 1 1 2
10 9 10 10 11 12 11 13 11 9 9 7 6 5 5 4 4 4 3 2 1 1 1 1 1 1 1 0 1 1 2 1 1 0 1 0 -0 -0 -0 -1 -1 -0 -0 0 0 0 1 1 2
9 10 11 12 12 15 12 13 12 11 9 7 6 6 5 5 4 3 2 2 2 1 1 1 1 1 1 1 1 1 1 2 2 1 1 1 1 0 -0 -0 -0 -0 -0 0 0 0 0 1 1
10 11 15 16 15 16 11 13 12 9 8 7 7 6 5 4 4 4 3 3 2 2 1 1 1 2 1 1 1 1 1 1 1 1 1 1 1 1 0 -0 -0 0 -0 -0 -0 0 1 1 1
11 11 14 18 17 15 13 15 12 9 8 7 7 6 6 5 4 4 3 3 2 2 2 1 1 2 1 1 1 1 1 2 1 1 1 1 1 1 -0 -0 -0 -0 -0 -1 -0 0 0 -0 1
11 13 10 13 13 15 13 12 10 8 8 7 7 6 6 5 4 4 3 3 2 2 2 2 2 1 1 1 1 1 1 0 1 0 0 0 -0 0 -0 -0 -0 -0 -0 -0 -0 0 0 0 0
10 9 13 12 17 19 14 14 13 10 9 8 7 7 6 5 4 3 3 2 2 2 1 1 1 2 1 1 1 1 1 0 0 1 1 0 -0 -0 -0 -0 -0 -0 -0 -1 -0 0 -0 -0 0
11 12 11 11 13 18 18 14 9 9 8 8 7 6 6 5 4 3 3 2 2 1 2 1 1 2 1 1 1 1 1 1 0 1 0 0 -0 -0 0 0 0 0 -0 -0 -0 -0 -0 0 0
10 11 11 15 18 15 16 15 8 8 7 7 7 6 5 4 4 3 3 2 2 2 2 1 2 2 1 1 1 1 1 1 1 1 0 -0 0 -0 -0 -0 0 0 -0 -0 0 0 -0 0 0